| time (UTC) | temp F | wind direction | speed MPH | gust MPH | rain 1hr in | rain 24hr in | rain mn in | humidity % | barometer mb |
| 20260905064216 | 74 | 194 | 3.0 | 5.0 | 0.00 | 0.00 | 0.00 | 30 | 1018.0 |
| 20260905063236 | 75 | 198 | 5.0 | 10.0 | 0.00 | 0.00 | 0.00 | 29 | 1017.8 |
| 20260905062216 | 75 | 188 | 5.0 | 12.0 | 0.00 | 0.00 | 0.00 | 29 | 1017.6 |
| 20260905060216 | 75 | 200 | 11.0 | 16.0 | 0.00 | 0.00 | 0.00 | 29 | 1017.3 |
| 20260905055216 | 75 | 191 | 5.0 | 10.0 | 0.00 | 0.00 | 0.00 | 29 | 1017.2 |
| 20260905054215 | 75 | 177 | 8.0 | 16.0 | 0.00 | 0.00 | 0.00 | 29 | 1016.9 |
| 20260905053216 | 76 | 183 | 7.0 | 11.0 | 0.00 | 0.00 | 0.00 | 29 | 1017.3 |
| 20260905052216 | 75 | 191 | 11.0 | 17.0 | 0.00 | 0.00 | 0.00 | 28 | 1016.9 |
| 20260905051216 | 76 | 195 | 3.0 | 6.0 | 0.00 | 0.00 | 0.00 | 27 | 1016.9 |
| 20260905050215 | 76 | 210 | 5.0 | 10.0 | 0.00 | 0.00 | 0.00 | 27 | 1016.8 |
| 20260905045236 | 76 | 202 | 7.0 | 13.0 | 0.00 | 0.00 | 0.00 | 26 | 1016.8 |
| 20260905044215 | 76 | 195 | 4.0 | 11.0 | 0.00 | 0.00 | 0.00 | 26 | 1016.7 |
| 20260905043215 | 77 | 202 | 7.0 | 10.0 | 0.00 | 0.00 | 0.00 | 26 | 1017.0 |
| 20260905042235 | 76 | 186 | 9.0 | 17.0 | 0.00 | 0.00 | 0.00 | 26 | 1016.7 |
| 20260905041215 | 75 | 200 | 3.0 | 9.0 | 0.00 | 0.00 | 0.00 | 26 | 1016.4 |
| 20260905040215 | 75 | 190 | 2.0 | 4.0 | 0.00 | 0.00 | 0.00 | 26 | 1016.4 |
| 20260905035215 | 75 | 198 | 3.0 | 5.0 | 0.00 | 0.00 | 0.00 | 26 | 1016.1 |
| 20260905034215 | 76 | 174 | 2.0 | 5.0 | 0.00 | 0.00 | 0.00 | 25 | 1015.6 |
| 20260905033215 | 76 | 196 | 4.0 | 6.0 | 0.00 | 0.00 | 0.00 | 25 | 1015.7 |
| 20260905032215 | 76 | 186 | 3.0 | 6.0 | 0.00 | 0.00 | 0.00 | 25 | 1015.5 |
| 20260905031215 | 77 | 198 | 4.0 | 7.0 | 0.00 | 0.00 | 0.00 | 25 | 1015.4 |
| 20260905030235 | 77 | 208 | 6.0 | 8.0 | 0.00 | 0.00 | 0.00 | 25 | 1015.4 |
| 20260905025235 | 78 | 200 | 2.0 | 4.0 | 0.00 | 0.00 | 0.00 | 26 | 1015.5 |
| 20260905024215 | 79 | 188 | 6.0 | 8.0 | 0.00 | 0.00 | 0.00 | 25 | 1015.2 |
| 20260905023215 | 79 | 196 | 8.0 | 9.0 | 0.00 | 0.00 | 0.00 | 25 | 1015.1 |
| 20260905022235 | 79 | 215 | 5.0 | 7.0 | 0.00 | 0.00 | 0.00 | 25 | 1015.0 |
| 20260905021215 | 80 | 201 | 7.0 | 12.0 | 0.00 | 0.00 | 0.00 | 24 | 1014.6 |
| 20260905020215 | 80 | 179 | 7.0 | 10.0 | 0.00 | 0.00 | 0.00 | 25 | 1014.4 |
| 20260905015215 | 81 | 179 | 6.0 | 13.0 | 0.00 | 0.00 | 0.00 | 24 | 1014.7 |
| 20260905014215 | 81 | 178 | 5.0 | 12.0 | 0.00 | 0.00 | 0.00 | 24 | 1014.4 |
| 20260905013215 | 82 | 190 | 9.0 | 17.0 | 0.00 | 0.00 | 0.00 | 23 | 1014.4 |
| 20260905012215 | 82 | 182 | 10.0 | 20.0 | 0.00 | 0.00 | 0.00 | 23 | 1014.4 |
| 20260905011215 | 83 | 199 | 8.0 | 14.0 | 0.00 | 0.00 | 0.00 | 23 | 1014.6 |
| 20260905010215 | 83 | 191 | 14.0 | 22.0 | 0.00 | 0.00 | 0.00 | 23 | 1014.6 |
| 20260905005215 | 83 | 187 | 10.0 | 21.0 | 0.00 | 0.00 | 0.00 | 23 | 1014.7 |
| 20260905004215 | 84 | 214 | 12.0 | 23.0 | 0.00 | 0.00 | 0.00 | 22 | 1015.0 |
| 20260905003215 | 84 | 204 | 15.0 | 24.0 | 0.00 | 0.00 | 0.00 | 22 | 1015.0 |
| 20260905002215 | 84 | 202 | 13.0 | 22.0 | 0.00 | 0.00 | 0.00 | 22 | 1015.1 |
| 20260905001215 | 84 | 200 | 13.0 | 25.0 | 0.00 | 0.00 | 0.00 | 21 | 1015.1 |
| 20260905000218 | 84 | 193 | 15.0 | 22.0 | 0.00 | 0.00 | 0.00 | 21 | 1015.1 |
| 20260904235315 | 84 | 198 | 12.0 | 24.0 | 0.00 | 0.00 | 0.00 | 21 | 1015.0 |
| 20260904234216 | 84 | 194 | 17.0 | 24.0 | 0.00 | 0.00 | 0.00 | 20 | 1014.7 |
| 20260904233217 | 85 | 201 | 16.0 | 25.0 | 0.00 | 0.00 | 0.00 | 20 | 1014.9 |
| 20260904232215 | 85 | 196 | 14.0 | 24.0 | 0.00 | 0.00 | 0.00 | 19 | 1014.8 |
| 20260904231237 | 85 | 188 | 16.0 | 24.0 | 0.00 | 0.00 | 0.00 | 19 | 1015.3 |
| 20260904230216 | 85 | 189 | 14.0 | 26.0 | 0.00 | 0.00 | 0.00 | 19 | 1015.2 |
| 20260904225217 | 84 | 198 | 14.0 | 22.0 | 0.00 | 0.00 | 0.00 | 18 | 1015.3 |
| 20260904224217 | 85 | 216 | 16.0 | 21.0 | 0.00 | 0.00 | 0.00 | 18 | 1015.7 |
| 20260904223217 | 85 | 193 | 16.0 | 28.0 | 0.00 | 0.00 | 0.00 | 18 | 1015.7 |
| 20260904222217 | 85 | 200 | 13.0 | 22.0 | 0.00 | 0.00 | 0.00 | 18 | 1015.8 |
| 20260904221217 | 84 | 195 | 17.0 | 24.0 | 0.00 | 0.00 | 0.00 | 18 | 1015.7 |
| 20260904220217 | 84 | 197 | 12.0 | 20.0 | 0.00 | 0.00 | 0.00 | 18 | 1015.9 |
| 20260904215217 | 84 | 186 | 15.0 | 27.0 | 0.00 | 0.00 | 0.00 | 18 | 1016.1 |
| 20260904214216 | 84 | 189 | 10.0 | 21.0 | 0.00 | 0.00 | 0.00 | 17 | 1016.1 |
| 20260904213217 | 84 | 204 | 15.0 | 23.0 | 0.00 | 0.00 | 0.00 | 18 | 1016.2 |
| 20260904212216 | 84 | 192 | 13.0 | 24.0 | 0.00 | 0.00 | 0.00 | 18 | 1016.3 |
| 20260904211216 | 83 | 180 | 15.0 | 25.0 | 0.00 | 0.00 | 0.00 | 18 | 1016.1 |
| 20260904210217 | 83 | 174 | 12.0 | 24.0 | 0.00 | 0.00 | 0.00 | 17 | 1016.2 |
| 20260904205237 | 83 | 194 | 10.0 | 21.0 | 0.00 | 0.00 | 0.00 | 17 | 1016.4 |
| 20260904204216 | 83 | 181 | 11.0 | 20.0 | 0.00 | 0.00 | 0.00 | 18 | 1016.7 |
| 20260904203216 | 83 | 186 | 10.0 | 19.0 | 0.00 | 0.00 | 0.00 | 17 | 1016.9 |
| 20260904202216 | 82 | 216 | 11.0 | 20.0 | 0.00 | 0.00 | 0.00 | 18 | 1016.6 |
| 20260904201216 | 82 | 205 | 10.0 | 22.0 | 0.00 | 0.00 | 0.00 | 18 | 1016.6 |
| 20260904200216 | 82 | 190 | 15.0 | 24.0 | 0.00 | 0.00 | 0.00 | 17 | 1016.7 |
| 20260904195216 | 82 | 200 | 13.0 | 26.0 | 0.00 | 0.00 | 0.00 | 17 | 1016.8 |
| 20260904194216 | 81 | 194 | 15.0 | 24.0 | 0.00 | 0.00 | 0.00 | 17 | 1017.5 |
| 20260904193216 | 81 | 205 | 16.0 | 25.0 | 0.00 | 0.00 | 0.00 | 19 | 1017.8 |
| 20260904192216 | 81 | 205 | 12.0 | 20.0 | 0.00 | 0.00 | 0.00 | 19 | 1018.0 |
| 20260904191216 | 81 | 227 | 15.0 | 26.0 | 0.00 | 0.00 | 0.00 | 19 | 1017.7 |
| 20260904190256 | 80 | 180 | 14.0 | 26.0 | 0.00 | 0.00 | 0.00 | 19 | 1017.8 |
| 20260904185216 | 80 | 187 | 14.0 | 20.0 | 0.00 | 0.00 | 0.00 | 19 | 1017.9 |
| 20260904184216 | 80 | 196 | 8.0 | 18.0 | 0.00 | 0.00 | 0.00 | 21 | 1018.5 |
| 20260904183216 | 79 | 200 | 12.0 | 27.0 | 0.00 | 0.00 | 0.00 | 20 | 1018.3 |
| 20260904182216 | 79 | 171 | 11.0 | 17.0 | 0.00 | 0.00 | 0.00 | 21 | 1018.6 |
| 20260904181216 | 78 | 197 | 18.0 | 28.0 | 0.00 | 0.00 | 0.00 | 22 | 1018.4 |
| 20260904180216 | 78 | 174 | 10.0 | 22.0 | 0.00 | 0.00 | 0.00 | 22 | 1018.5 |
| 20260904175216 | 78 | 188 | 12.0 | 22.0 | 0.00 | 0.00 | 0.00 | 22 | 1018.6 |
| 20260904174236 | 78 | 198 | 14.0 | 26.0 | 0.00 | 0.00 | 0.00 | 25 | 1018.9 |
| 20260904173216 | 77 | 178 | 11.0 | 23.0 | 0.00 | 0.00 | 0.00 | 27 | 1018.7 |
| 20260904172216 | 77 | 176 | 14.0 | 32.0 | 0.00 | 0.00 | 0.00 | 26 | 1018.6 |
| 20260904171216 | 76 | 185 | 10.0 | 22.0 | 0.00 | 0.00 | 0.00 | 27 | 1018.7 |
| 20260904170216 | 75 | 155 | 10.0 | 15.0 | 0.00 | 0.00 | 0.00 | 28 | 1018.3 |
| 20260904165216 | 75 | 132 | 8.0 | 11.0 | 0.00 | 0.00 | 0.00 | 31 | 1018.4 |
| 20260904164216 | 75 | 149 | 10.0 | 20.0 | 0.00 | 0.00 | 0.00 | 31 | 1018.7 |
| 20260904163236 | 75 | 178 | 13.0 | 28.0 | 0.00 | 0.00 | 0.00 | 32 | 1018.7 |
| 20260904162216 | 75 | 173 | 9.0 | 16.0 | 0.00 | 0.00 | 0.00 | 30 | 1018.6 |
| 20260904161216 | 75 | 168 | 10.0 | 18.0 | 0.00 | 0.00 | 0.00 | 29 | 1018.8 |
| 20260904160215 | 75 | 167 | 11.0 | 17.0 | 0.00 | 0.00 | 0.00 | 30 | 1018.8 |
| 20260904155236 | 74 | 178 | 10.0 | 18.0 | 0.00 | 0.00 | 0.00 | 31 | 1018.9 |
| 20260904154216 | 73 | 169 | 4.0 | 11.0 | 0.00 | 0.00 | 0.00 | 26 | 1018.4 |
| 20260904153216 | 72 | 147 | 7.0 | 10.0 | 0.00 | 0.00 | 0.00 | 25 | 1018.3 |
| 20260904152215 | 71 | 148 | 7.0 | 10.0 | 0.00 | 0.00 | 0.00 | 25 | 1018.1 |
| 20260904151216 | 71 | 137 | 7.0 | 12.0 | 0.00 | 0.00 | 0.00 | 25 | 1018.1 |
| 20260904150216 | 70 | 162 | 1.0 | 2.0 | 0.00 | 0.00 | 0.00 | 28 | 1017.7 |
| 20260904145215 | 70 | 170 | 2.0 | 5.0 | 0.00 | 0.00 | 0.00 | 28 | 1017.9 |
| 20260904144215 | 70 | 139 | 3.0 | 5.0 | 0.00 | 0.00 | 0.00 | 29 | 1018.1 |
| 20260904143216 | 70 | 97 | 3.0 | 3.0 | 0.00 | 0.00 | 0.00 | 28 | 1018.0 |
| 20260904142215 | 70 | 242 | 1.0 | 2.0 | 0.00 | 0.00 | 0.00 | 25 | 1018.1 |
| 20260904141216 | 69 | 242 | 0.0 | 1.0 | 0.00 | 0.00 | 0.00 | 26 | 1017.9 |
| 20260904140215 | 68 | 0.0 | 1.0 | 0.00 | 0.00 | 0.00 | 26 | 1017.7 | |
| 20260904135216 | 67 | 242 | 0.0 | 1.0 | 0.00 | 0.00 | 0.00 | 28 | 1017.4 |
| 20260904134215 | 66 | 242 | 0.0 | 2.0 | 0.00 | 0.00 | 0.00 | 27 | 1017.6 |
| 20260904133215 | 65 | 242 | 4.0 | 5.0 | 0.00 | 0.00 | 0.00 | 27 | 1017.3 |
| 20260904132215 | 64 | 297 | 1.0 | 4.0 | 0.00 | 0.00 | 0.00 | 27 | 1017.0 |
| 20260904131215 | 65 | 246 | 1.0 | 2.0 | 0.00 | 0.00 | 0.00 | 26 | 1016.9 |
| 20260904130215 | 65 | 246 | 1.0 | 3.0 | 0.00 | 0.00 | 0.00 | 25 | 1016.7 |
| 20260904125215 | 66 | 247 | 2.0 | 4.0 | 0.00 | 0.00 | 0.00 | 24 | 1016.8 |
| 20260904124215 | 66 | 250 | 3.0 | 4.0 | 0.00 | 0.00 | 0.00 | 24 | 1017.1 |
| 20260904123215 | 66 | 250 | 3.0 | 5.0 | 0.00 | 0.00 | 0.00 | 23 | 1017.0 |
| 20260904122215 | 65 | 240 | 1.0 | 3.0 | 0.00 | 0.00 | 0.00 | 23 | 1016.5 |
| 20260904121215 | 66 | 240 | 3.0 | 4.0 | 0.00 | 0.00 | 0.00 | 23 | 1016.8 |
| 20260904120215 | 66 | 244 | 3.0 | 3.0 | 0.00 | 0.00 | 0.00 | 23 | 1016.8 |
| 20260904115215 | 66 | 244 | 3.0 | 4.0 | 0.00 | 0.00 | 0.00 | 23 | 1016.8 |
| 20260904114215 | 67 | 228 | 4.0 | 5.0 | 0.00 | 0.00 | 0.00 | 22 | 1016.6 |
| 20260904113215 | 66 | 240 | 5.0 | 9.0 | 0.00 | 0.00 | 0.00 | 23 | 1016.6 |
| 20260904112215 | 65 | 271 | 3.0 | 4.0 | 0.00 | 0.00 | 0.00 | 24 | 1016.3 |
| 20260904111215 | 65 | 241 | 1.0 | 2.0 | 0.00 | 0.00 | 0.00 | 22 | 1016.3 |
| 20260904110215 | 65 | 241 | 1.0 | 2.0 | 0.00 | 0.00 | 0.00 | 22 | 1016.1 |
| 20260904105215 | 66 | 234 | 1.0 | 2.0 | 0.00 | 0.00 | 0.00 | 21 | 1016.4 |
| 20260904104215 | 66 | 245 | 5.0 | 8.0 | 0.00 | 0.00 | 0.00 | 21 | 1016.3 |
| 20260904103215 | 66 | 269 | 5.0 | 6.0 | 0.00 | 0.00 | 0.00 | 22 | 1016.3 |
| 20260904102215 | 67 | 233 | 1.0 | 4.0 | 0.00 | 0.00 | 0.00 | 21 | 1016.5 |
| 20260904101215 | 66 | 231 | 2.0 | 5.0 | 0.00 | 0.00 | 0.00 | 20 | 1016.1 |
| 20260904100215 | 65 | 279 | 3.0 | 4.0 | 0.00 | 0.00 | 0.00 | 28 | 1015.8 |
| 20260904095215 | 66 | 62 | 2.0 | 3.0 | 0.00 | 0.00 | 0.00 | 32 | 1016.2 |
| 20260904094215 | 66 | 26 | 4.0 | 5.0 | 0.00 | 0.00 | 0.00 | 30 | 1015.8 |
| 20260904093235 | 65 | 7 | 5.0 | 8.0 | 0.00 | 0.00 | 0.00 | 30 | 1015.6 |
| 20260904092215 | 67 | 56 | 3.0 | 5.0 | 0.00 | 0.00 | 0.00 | 31 | 1016.0 |
| 20260904091217 | 65 | 71 | 4.0 | 6.0 | 0.00 | 0.00 | 0.00 | 33 | 1015.4 |
| 20260904090215 | 66 | 42 | 2.0 | 2.0 | 0.00 | 0.00 | 0.00 | 21 | 1015.6 |
| 20260904085237 | 65 | 42 | 0.0 | 4.0 | 0.00 | 0.00 | 0.00 | 23 | 1015.2 |
| 20260904084215 | 65 | 294 | 2.0 | 3.0 | 0.00 | 0.00 | 0.00 | 30 | 1015.3 |
| 20260904083237 | 67 | 298 | 3.0 | 4.0 | 0.00 | 0.00 | 0.00 | 33 | 1015.6 |
| 20260904082217 | 68 | 119 | 0.0 | 3.0 | 0.00 | 0.00 | 0.00 | 30 | 1015.7 |
| 20260904081217 | 67 | 105 | 2.0 | 4.0 | 0.00 | 0.00 | 0.00 | 29 | 1015.3 |
| 20260904080217 | 67 | 74 | 1.0 | 3.0 | 0.00 | 0.00 | 0.00 | 33 | 1015.4 |
| 20260904075217 | 66 | 302 | 2.0 | 3.0 | 0.00 | 0.00 | 0.00 | 35 | 1015.0 |
| 20260904074216 | 67 | 59 | 1.0 | 2.0 | 0.00 | 0.00 | 0.00 | 32 | 1015.1 |
| 20260904073217 | 68 | 105 | 1.0 | 2.0 | 0.00 | 0.00 | 0.00 | 30 | 1015.4 |
| 20260904072217 | 70 | 220 | 2.0 | 2.0 | 0.00 | 0.00 | 0.00 | 21 | 1015.4 |
| 20260904071216 | 72 | 169 | 1.0 | 6.0 | 0.00 | 0.00 | 0.00 | 21 | 1015.4 |
| 20260904070216 | 72 | 194 | 2.0 | 4.0 | 0.00 | 0.00 | 0.00 | 17 | 1015.3 |
| 20260904065236 | 72 | 173 | 4.0 | 10.0 | 0.00 | 0.00 | 0.00 | 18 | 1015.2 |